FW5198 Weather Reports


Display with metric or nautical units.
time (UTC)temp
F
wind
direction
speed
MPH
gust
MPH
rain 1hr
in
rain 24hr
in
rain mn
in
humidity
%
barometer
mb
20260904061545 77 0 0.0 1.0 0.00 0.00 0.00 93 1015.9
20260904060047 77 0 0.0 1.0 0.00 0.00 0.00 93 1015.9
20260904054555 77 0 0.0 1.0 0.00 0.00 0.00 93 1015.9
20260904053059 77 0 0.0 1.0 0.00 0.00 0.00 93 1015.9
20260904051548 77 0 0.0 1.0 0.00 0.00 0.00 93 1016.0
20260904050058 77 0 0.0 1.0 0.00 0.00 0.00 92 1016.0
20260904044558 78 0 0.0 1.0 0.00 0.00 0.00 93 1016.2
20260904043049 78 0 0.0 1.0 0.00 0.00 0.00 93 1016.1
20260904041547 78 49 0.0 1.0 0.00 0.00 0.00 93 1016.2
20260904040049 79 0 0.0 1.0 0.00 0.00 0.00 92 1016.3
20260904034547 79 0 0.0 1.0 0.00 0.00 0.00 92 1016.4
20260904033057 79 0 0.0 1.0 0.00 0.00 0.00 91 1016.6
20260904031601 79 0 0.0 1.0 0.00 0.00 0.00 91 1016.5
20260904030046 80 0 0.0 1.0 0.00 0.00 0.00 91 1016.6
20260904024546 80 0 0.0 1.0 0.00 0.00 0.00 90 1016.6
20260904023053 80 0 0.0 1.0 0.00 0.00 0.00 90 1016.5
20260904021552 81 49 0.0 1.0 0.00 0.00 0.00 89 1016.4
20260904020047 81 0 0.0 1.0 0.00 0.00 0.00 89 1016.2
20260904014549 82 0 0.0 0.0 0.00 0.00 0.00 88 1016.1
20260904013053 83 0 0.0 1.0 0.00 0.00 0.00 87 1015.9
20260904011547 83 0 0.0 1.0 0.00 0.00 0.00 86 1015.8
20260904010050 84 0 0.0 1.0 0.00 0.00 0.00 84 1015.7
20260904004550 85 0 0.0 1.0 0.00 0.00 0.00 82 1015.5
20260904003048 85 0 0.0 1.0 0.00 0.00 0.00 80 1015.6
20260904001545 87 0 0.0 1.0 0.00 0.00 0.00 78 1015.5
20260903234549 90 47 0.0 1.0 0.00 0.00 0.00 74 1015.4
20260903233048 92 47 1.0 1.0 0.00 0.00 0.00 69 1015.2
20260903231551 94 48 0.0 2.0 0.00 0.00 0.00 63 1015.1
20260903230047 96 46 1.0 2.0 0.00 0.00 0.00 55 1015.0
20260903224550 96 56 0.0 3.0 0.00 0.00 0.00 52 1014.9
20260903223046 97 60 1.0 3.0 0.00 0.00 0.00 50 1014.9
20260903221550 97 49 0.0 5.0 0.00 0.00 0.00 49 1014.9
20260903220050 97 43 2.0 4.0 0.00 0.00 0.00 48 1015.0
20260903214545 97 67 1.0 4.0 0.00 0.00 0.00 47 1015.0
20260903213045 98 31 2.0 5.0 0.00 0.00 0.00 48 1015.1
20260903211553 97 340 2.0 4.0 0.00 0.00 0.00 47 1015.4
20260903210048 98 29 1.0 5.0 0.00 0.00 0.00 46 1015.5
20260903204552 98 15 3.0 7.0 0.00 0.00 0.00 46 1015.7
20260903203052 98 32 2.0 6.0 0.00 0.00 0.00 47 1015.8
20260903201554 98 41 2.0 5.0 0.00 0.00 0.00 47 1015.8
20260903200051 98 319 3.0 6.0 0.00 0.00 0.00 48 1016.0
20260903194550 97 81 2.0 5.0 0.00 0.00 0.00 49 1016.2
20260903193047 97 15 1.0 6.0 0.00 0.00 0.00 49 1016.4
20260903191554 96 30 2.0 7.0 0.00 0.00 0.00 51 1016.6
20260903190048 97 55 1.0 5.0 0.00 0.00 0.00 50 1016.8
20260903184546 97 56 2.0 9.0 0.00 0.00 0.00 50 1017.0
20260903183052 96 52 0.0 4.0 0.00 0.00 0.00 51 1017.0
20260903181547 96 342 4.0 9.0 0.00 0.00 0.00 50 1017.3
20260903180110 96 20 3.0 6.0 0.00 0.00 0.00 53 1017.3
20260903174546 96 101 2.0 7.0 0.00 0.00 0.00 52 1017.4
20260903173052 96 29 2.0 5.0 0.00 0.00 0.00 49 1017.5
20260903171553 96 33 2.0 7.0 0.00 0.00 0.00 51 1017.7
20260903170057 96 3 3.0 6.0 0.00 0.00 0.00 50 1017.8
20260903164600 94 109 2.0 5.0 0.00 0.00 0.00 57 1018.0
20260903163048 94 0 0.0 5.0 0.00 0.00 0.00 56 1018.1
20260903161547 94 27 3.0 5.0 0.00 0.00 0.00 55 1018.3
20260903160046 94 0 0.0 0.0 0.00 0.00 0.00 57 1018.4
20260903154545 93 0 0.0 0.0 0.00 0.00 0.00 59 1018.4
20260903153050 92 0 0.0 0.0 0.00 0.00 0.00 61 1018.3
20260903151550 92 0 0.0 0.0 0.00 0.00 0.00 64 1018.4
20260903150051 91 0 0.0 0.0 0.00 0.00 0.00 66 1018.4
20260903144551 90 0 0.0 0.0 0.00 0.00 0.00 68 1018.3
20260903143052 89 0 0.0 0.0 0.00 0.00 0.00 70 1018.3
20260903141547 87 0 0.0 0.0 0.00 0.00 0.00 74 1018.3
20260903140047 86 0 0.0 0.0 0.00 0.00 0.00 75 1018.4
20260903134547 83 0 0.0 0.0 0.00 0.00 0.00 80 1018.5
20260903133051 81 0 0.0 0.0 0.00 0.00 0.00 83 1018.5
20260903131548 79 0 0.0 0.0 0.00 0.00 0.00 87 1018.5
20260903130115 77 0 0.0 0.0 0.00 0.00 0.00 93 1018.5
20260903124547 75 0 0.0 0.0 0.00 0.00 0.00 94 1018.5
20260903123049 74 0 0.0 0.0 0.00 0.00 0.00 95 1018.7
20260903121548 73 0 0.0 0.0 0.00 0.00 0.00 95 1018.5
20260903120048 72 0 0.0 0.0 0.00 0.00 0.00 96 1018.3
20260903114551 72 0 0.0 0.0 0.00 0.00 0.00 96 1018.1
20260903113046 72 0 0.0 0.0 0.00 0.00 0.00 96 1018.1
20260903111550 72 0 0.0 0.0 0.00 0.00 0.00 96 1017.9
20260903110115 72 0 0.0 0.0 0.00 0.00 0.00 96 1017.7
20260903104552 72 0 0.0 0.0 0.00 0.00 0.00 96 1017.5
20260903103055 72 0 0.0 0.0 0.00 0.00 0.00 96 1017.5
20260903101604 72 0 0.0 0.0 0.00 0.00 0.00 96 1017.5
20260903100048 73 0 0.0 0.0 0.00 0.00 0.00 96 1017.4
20260903094558 73 0 0.0 0.0 0.00 0.00 0.00 96 1017.5
20260903093059 73 0 0.0 0.0 0.00 0.00 0.00 96 1017.5
20260903091557 73 0 0.0 0.0 0.00 0.00 0.00 96 1017.4
20260903090049 73 0 0.0 0.0 0.00 0.00 0.00 96 1017.4
20260903084547 74 0 0.0 0.0 0.00 0.00 0.00 96 1017.6
20260903083053 74 0 0.0 0.0 0.00 0.00 0.00 96 1017.5
20260903081552 74 0 0.0 0.0 0.00 0.00 0.00 96 1017.4
20260903080048 74 0 0.0 0.0 0.00 0.00 0.00 96 1017.3
20260903074552 74 0 0.0 0.0 0.00 0.00 0.00 96 1017.3
20260903073050 74 0 0.0 0.0 0.00 0.00 0.00 96 1017.2
20260903071552 75 0 0.0 0.0 0.00 0.00 0.00 96 1017.1
20260903070046 75 0 0.0 0.0 0.00 0.00 0.00 96 1017.1
20260903064552 75 0 0.0 0.0 0.00 0.00 0.00 95 1017.1
20260903063053 75 0 0.0 0.0 0.00 0.00 0.00 95 1017.3